Location: B?dargowo
(53.3916°N, 14.4413°E)
Time: 10:36:38
(UTC+00:00)

Cosmos 1844 Rocket - Pass Details

Date: 05 February 2023
Orbit: 826 x 843 km, 71.0° (Epoch: 19 March)

Event Time Altitude Azimuth Distance (km) Brightness Sun altitude
Rises 17:04:44 0° 327° (NNW) 3,379 6.1 -11.0°
Reaches altitude 10° 17:07:11 10° 325° (NW) 2,440 5.4 -11.3°
Maximum altitude 17:12:44 67° 243° (WSW) 894 3.1 -12.1°
Drops below altitude 10° 17:18:14 10° 162° (SSE) 2,424 5.0 -13.0°
Sets 17:20:40 0° 160° (SSE) 3,355 5.7 -13.3°
